DAUL

Laghouat Airport

Airport
ICAO code
DAUL
IATA Code
LOO
Summary
ICAO Region
AFI
ICAO Territory
Location

, Laghouat

Serving
Laghouat
Elevation
2510 ft
Coordinates
33° 45' 52" N , 2° 55' 42" E
Metar
DAUL 191000Z 04012KT 9999 FEW026 BKN200 19/04 Q1020

Runways

Designator Length Width Surface Rops
16R/34L 3803 45 ASP No/No
16L/34R 3806 45 ASP No/No

Airport map

Aerial View

SKYbrary Partners:

Safety knowledge contributed by: